"Time","Temp","Dewpoint","Humidity","Pressure","Direction","Speed","Gust","Precip","PrecipRate"
"00:04:59","71.7","70.7","96.6","29.87","311","0","0","0.00","0.00"
"00:09:56","71.7","70.8","97","29.87","311","0","0","0.00","0.00"
"00:14:59","71.7","70.8","97","29.88","311","0","0","0.00","0.00"
"00:19:58","71.7","70.8","97","29.88","311","0","0","0.00","0.00"
"00:24:57","71.8","70.9","97","29.88","311","0","0","0.00","0.00"
"00:29:56","71.9","71","97","29.88","311","0","0","0.00","0.00"
"00:34:58","71.9","71","97","29.87","311","0","0","0.00","0.00"
"00:39:58","71.9","71","97","29.87","311","0","0","0.00","0.00"
"00:44:57","71.8","70.9","97","29.87","311","0","0","0.00","0.00"
"00:49:56","71.9","71","97","29.87","311","0","0","0.00","0.00"
"00:54:59","71.9","71","97","29.87","311","0","0","0.00","0.00"
"00:59:58","71.9","71","97","29.87","311","0","0","0.00","0.00"
"01:04:56","71.8","70.9","97","29.87","311","0","0","0.00","0.00"
"01:09:56","71.7","70.8","97","29.87","311","0","0","0.00","0.00"
"01:14:56","71.7","70.8","97","29.87","311","0","0","0.00","0.00"
"01:19:59","71.7","70.8","97","29.87","311","0","0","0.00","0.00"
"01:24:59","71.7","70.8","97","29.87","311","0","0","0.00","0.00"
"01:29:57","71.7","70.8","97","29.87","311","0","0","0.00","0.00"
"01:34:56","71.8","70.9","97","29.87","311","0","0","0.00","0.00"
"01:39:57","71.8","70.9","97","29.87","311","0","0","0.00","0.00"
"01:44:56","71.8","70.9","97","29.87","311","0","0","0.00","0.00"
"01:49:59","71.8","70.9","97","29.87","311","0","0","0.00","0.00"
"01:54:58","71.8","70.9","97","29.87","311","0","0","0.00","0.00"
"01:59:56","71.8","70.9","97","29.87","311","0","0","0.00","0.00"
"02:04:59","71.7","70.8","97","29.87","311","0","0","0.00","0.00"
"02:09:59","71.6","70.7","97","29.87","311","0","0","0.00","0.00"
"02:14:59","71.6","70.7","97","29.87","311","0","0","0.00","0.00"
"02:19:58","71.6","70.7","97","29.86","311","0","0","0.00","0.00"
"02:24:57","71.5","70.6","97","29.86","311","0","0","0.00","0.00"
"02:29:56","71.5","70.6","97","29.86","311","0","0","0.00","0.00"
"02:34:58","71.5","70.6","97","29.86","311","0","0","0.00","0.00"
"02:39:59","71.6","70.7","97","29.86","311","0","0","0.00","0.00"
"02:44:58","71.6","70.7","97","29.86","311","0","0","0.00","0.00"
"02:49:57","71.5","70.6","97","29.86","311","0","0","0.00","0.00"
"02:54:56","71.5","70.6","97","29.86","311","0","0","0.00","0.00"
"02:59:58","71.5","70.6","97","29.86","311","0","0","0.00","0.00"
"03:04:58","71.5","70.6","97","29.85","311","0","0","0.00","0.00"
"03:09:57","71.4","70.5","97","29.85","311","0","0","0.00","0.00"
"03:14:57","71.3","70.4","97","29.86","311","0","0","0.00","0.00"
"03:19:56","71.3","70.4","97","29.86","311","0","0","0.00","0.00"
"03:24:59","71.2","70.3","97","29.86","311","0","0","0.00","0.00"
"03:29:58","71.2","70.3","97","29.86","311","0","0","0.00","0.00"
"03:34:57","71.1","70.2","97","29.86","311","0","0","0.00","0.00"
"03:39:57","71.1","70.2","97","29.86","311","0","0","0.00","0.00"
"03:44:57","71.1","70.2","97","29.86","311","0","0","0.00","0.00"
"03:49:55","71","70.1","97","29.86","311","0","0","0.00","0.00"
"03:54:59","71","70.1","97","29.86","311","0","0","0.00","0.00"
"03:59:57","71.1","70.2","97","29.86","311","0","0","0.00","0.00"
"04:04:59","71","70.1","97","29.86","311","0","0","0.00","0.00"
"04:09:59","71","70.1","97","29.86","311","0","0","0.00","0.00"
"04:14:59","71","70.1","97","29.86","311","0","0","0.00","0.00"
"04:19:58","71","70.1","97","29.86","311","0","0","0.00","0.00"
"04:24:57","71","70.1","97","29.86","311","0","0","0.00","0.00"
"04:29:56","70.9","70","97","29.86","311","0","0","0.00","0.00"
"04:34:59","70.8","69.9","97","29.86","311","0","0","0.00","0.00"
"04:39:59","70.8","69.9","97","29.86","311","0","0","0.00","0.00"
"04:44:58","70.8","69.9","97","29.86","311","0","0","0.00","0.00"
"04:49:57","70.7","69.8","97","29.86","311","0","0","0.00","0.00"
"04:54:56","70.6","69.7","97","29.86","311","0","0","0.00","0.00"
"04:59:59","70.4","69.5","97","29.87","311","0","0","0.00","0.00"
"05:04:57","70.3","69.4","97","29.87","311","0","0","0.00","0.00"
"05:09:57","70.1","69.2","97","29.87","311","0","0","0.00","0.00"
"05:14:57","70.1","69.2","97","29.87","311","0","0","0.00","0.00"
"05:19:56","70.1","69.2","97","29.87","311","0","0","0.00","0.00"
"05:24:58","70","69.1","97","29.87","311","0","0","0.00","0.00"
"05:29:57","69.8","68.9","97","29.87","311","0","0","0.00","0.00"
"05:34:56","69.6","68.7","97","29.87","311","0","0","0.00","0.00"
"05:39:57","69.5","68.6","97","29.87","311","0","0","0.00","0.00"
"05:44:57","69.5","68.6","97","29.87","311","0","0","0.00","0.00"
"05:49:59","69.4","68.5","97","29.87","311","0","0","0.00","0.00"
"05:54:58","69.5","68.6","97","29.87","311","0","0","0.00","0.00"
"05:59:57","69.6","68.7","97.2","29.87","311","0","0","0.00","0.00"
"06:04:48","69.7","68.9","97.4","29.87","311","0","0","0.00","0.00"
"06:09:56","69.6","68.7","97","29.87","311","0","0","0.00","0.00"
"06:14:56","69.6","68.7","97","29.88","311","0","0","0.00","0.00"
"06:19:59","69.6","68.7","97","29.88","311","0","0","0.00","0.00"
"06:24:58","69.6","68.7","97","29.88","311","0","0","0.00","0.00"
"06:29:57","69.6","68.9","97.5","29.88","311","0","0","0.00","0.00"
"06:34:56","69.6","69","98","29.88","311","0","0","0.00","0.00"
"06:39:59","69.8","69.2","98","29.88","311","0","0","0.00","0.00"
"06:44:58","69.9","69.3","98","29.89","311","0","0","0.00","0.00"
"06:49:57","70","69.4","98","29.89","311","0","0","0.00","0.00"
"06:54:59","70.2","69.6","98","29.89","311","0","0","0.00","0.00"
"06:59:58","70.4","69.8","98","29.89","311","0","0","0.00","0.00"
"07:04:56","70.6","70","98","29.89","311","0","0","0.00","0.00"
"07:09:59","70.8","70.2","98","29.89","311","0","0","0.00","0.00"
"07:14:59","70.9","70.3","98","29.89","311","0","0","0.00","0.00"
"07:19:58","70.9","70.3","98","29.89","311","0","0","0.00","0.00"
"07:24:57","71","70.4","98","29.89","311","0","0","0.00","0.00"
"07:29:59","71","70.4","98","29.90","311","0","0","0.00","0.00"
"07:34:58","71.2","70.6","98","29.90","311","0.1","2","0.00","0.00"
"07:39:57","71.4","70.6","97.3","29.90","311","1","3.5","0.00","0.00"
"07:44:59","71.8","70.7","96.5","29.91","308","1.8","5","0.00","0.00"
"07:49:58","72.1","70.7","95.4","29.91","297","1","4.6","0.00","0.00"
"07:54:56","72.4","70.8","94.9","29.91","329","1","3","0.00","0.00"
"07:59:59","72.6","70.8","94","29.91","350","0.3","2.3","0.00","0.00"
"08:04:58","72.9","71.1","94","29.91","350","0","0","0.00","0.00"
"08:09:57","73.1","71","93.3","29.91","350","0","0","0.00","0.00"
"08:14:57","73.3","71","92.6","29.91","350","0.9","3.5","0.00","0.00"
"08:19:56","73.6","71","91.5","29.91","349","1","4","0.00","0.00"
"08:24:58","74.1","71.2","90.4","29.91","330","1.8","7","0.00","0.00"
"08:29:56","74.8","71.3","89","29.91","292","1.2","4.6","0.00","0.00"
"08:34:59","75.5","71.7","88.1","29.90","302","1.1","4","0.00","0.00"
"08:39:58","76.2","72.3","87.6","29.90","304","1.2","3.5","0.00","0.00"
"08:44:57","76.8","71.7","84.5","29.91","262","2","4","0.00","0.00"
"08:49:58","77.4","72.2","84","29.91","319","2.2","6","0.00","0.00"
"08:54:57","78","72.1","82.1","29.91","336","2.1","6","0.00","0.00"
"08:59:59","78.2","71.9","80.9","29.91","278","1.5","5","0.00","0.00"
"09:04:56","78.2","71.7","80.3","29.90","322","2.2","5","0.00","0.00"
"09:09:59","78.2","71.5","80.1","29.90","308","1.8","5","0.00","0.00"
"09:14:59","78.3","71.8","80.7","29.91","292","1.9","10.4","0.00","0.00"
"09:19:57","78.4","71.7","80","29.91","301","2.5","7","0.00","0.00"
"09:24:59","78.4","71.3","79","29.91","333","3.6","10.4","0.00","0.00"
"09:29:58","78.4","71.6","79.5","29.92","334","3.1","9.2","0.00","0.00"
"09:34:56","78.6","71.7","79.5","29.92","321","2.5","9.2","0.00","0.00"
"09:39:59","78.7","71.5","78.7","29.92","325","2.6","9.2","0.00","0.00"
"09:44:58","78.7","71.5","78.5","29.92","335","2.7","7","0.00","0.00"
"09:49:56","78.7","71.5","78.6","29.92","297","2","6.9","0.00","0.00"
"09:54:58","78.7","71.7","79.3","29.92","346","1.4","5","0.00","0.00"
"09:59:57","78.7","71.7","79","29.92","336","2.1","5","0.00","0.00"
"10:04:56","78.8","71.7","78.8","29.92","310","2.6","6","0.00","0.00"
"10:09:59","78.8","71.9","79.4","29.92","286","1.5","5.8","0.00","0.00"
"10:14:57","79","72.1","79.4","29.92","275","2.1","5","0.00","0.00"
"10:19:56","79.2","71.9","78.6","29.92","268","2.2","6","0.00","0.00"
"10:24:59","79.4","71.9","77.9","29.92","317","3","7","0.00","0.00"
"10:29:59","79.7","72.2","78","29.92","343","2.7","8.1","0.00","0.00"
"10:34:59","80.1","72.5","77.7","29.92","339","2.6","9.2","0.00","0.00"
"10:39:59","80.4","72.6","77.1","29.92","300","3.2","6","0.00","0.00"
"10:44:59","80.6","72.5","76.6","29.92","217","1.1","4.6","0.00","0.00"
"10:49:59","80.6","72.2","75.8","29.92","226","1.9","4","0.00","0.00"
"10:54:59","80.4","71.7","75","29.92","330","2.5","6","0.00","0.00"
"10:59:58","80.5","72.1","75.9","29.92","309","2.7","5.8","0.00","0.00"
"11:04:57","80.7","71.8","74.5","29.92","303","2","7","0.00","0.00"
"11:09:58","80.7","71.6","74","29.92","263","2.2","5","0.00","0.00"
"11:14:58","80.8","72.3","75.6","29.92","226","2.7","5","0.00","0.00"
"11:19:58","81.2","72.2","74.3","29.92","313","2.5","6","0.00","0.00"
"11:24:57","81.5","72.3","73.7","29.92","320","3","6","0.00","0.00"
"11:29:57","81.9","73","74.3","29.92","331","2.1","8","0.00","0.00"
"11:34:56","82.3","72.4","72.1","29.92","333","3.2","8.1","0.00","0.00"
"11:39:56","82.5","72.9","72.8","29.92","269","1.8","4","0.00","0.00"
"11:44:56","82.8","72.7","71.7","29.92","301","2","6","0.00","0.00"
"11:49:56","82.8","72.7","71.6","29.91","311","1.7","4","0.00","0.00"
"11:54:59","83.2","73.7","73.2","29.91","326","2.1","7","0.00","0.00"
"11:59:59","83.5","73.5","72","29.91","253","2.3","5","0.00","0.00"
"12:04:58","83.9","74.5","73.3","29.91","234","2","6","0.00","0.00"
"12:09:58","84.2","73.8","71.1","29.91","267","2.6","6","0.00","0.00"
"12:14:56","84.3","73.8","70.7","29.91","329","1.9","7","0.00","0.00"
"12:19:59","84.7","74.2","70.8","29.91","305","2.5","8.1","0.00","0.00"
"12:24:59","84.9","74.8","71.9","29.91","210","2.4","5","0.00","0.00"
"12:29:58","85.1","74.3","70.2","29.91","289","2.5","10.4","0.00","0.00"
"12:34:58","85.1","73.9","69.2","29.91","311","2.4","5","0.00","0.00"
"12:39:59","85.2","74.1","69.7","29.91","256","3.1","9.2","0.00","0.00"
"12:44:59","85.2","73.9","69","29.91","250","3.9","10.4","0.00","0.00"
"12:49:57","85.3","74","69","29.91","320","2.2","9","0.00","0.00"
"12:54:57","85.8","74.2","68.6","29.91","334","3.5","9.2","0.00","0.00"
"12:59:56","86.3","73.7","66.4","29.91","324","3","6","0.00","0.00"
"13:04:59","86","72.7","64.5","29.90","325","3.5","8.1","0.00","0.00"
"13:09:56","86.1","74.3","68.1","29.90","226","2.9","6","0.00","0.00"
"13:14:56","86.2","72.5","63.8","29.90","298","4.2","11.5","0.00","0.00"
"13:19:56","86.3","72.4","63.4","29.90","320","2.9","7","0.00","0.00"
"13:24:56","86.5","73.2","64.7","29.90","307","2.3","6","0.00","0.00"
"13:29:55","86.9","74.4","66.7","29.90","334","1.2","5","0.00","0.00"
"13:34:59","87.2","72.3","61.5","29.90","304","3.3","7","0.00","0.00"
"13:39:56","87.2","72.5","61.8","29.90","315","3","6","0.00","0.00"
"13:44:59","87.4","72.6","61.7","29.90","270","2.5","5.8","0.00","0.00"
"13:49:59","87.5","72.3","60.9","29.89","228","3.7","7","0.00","0.00"
"13:54:58","87.4","72.1","60.5","29.89","328","3.9","11.5","0.00","0.00"
"13:59:57","87.5","72.6","61.6","29.89","289","3.1","10.4","0.00","0.00"
"14:04:57","87.7","73.1","62.1","29.89","222","3.8","10.4","0.00","0.00"
"14:09:57","87.9","72.8","61.1","29.89","313","3.2","6.9","0.00","0.00"
"14:14:58","88.2","73.6","62.2","29.89","315","1.9","5.8","0.00","0.00"
"14:19:57","88.5","73.3","61.1","29.88","247","3.2","7","0.00","0.00"
"14:24:57","88.6","73.4","60.9","29.88","277","2.2","6","0.00","0.00"
"14:29:56","88.5","73.3","61","29.88","252","2.5","5.8","0.00","0.00"
"14:34:59","88.4","72.4","59.4","29.88","254","2.4","6","0.00","0.00"
"14:39:56","88.4","72.6","59.7","29.88","297","3.1","10.4","0.00","0.00"
"14:44:56","88.4","73.7","62","29.88","223","2.5","6","0.00","0.00"
"14:49:56","88.3","72.7","60.2","29.87","308","2.7","8.1","0.00","0.00"
"14:54:59","88.4","73.1","60.7","29.87","326","2.2","9.2","0.00","0.00"
"14:59:59","88.6","73","60.3","29.87","324","1.9","6","0.00","0.00"
"15:04:58","88.6","72.6","59.3","29.87","323","3.5","7","0.00","0.00"
"15:09:59","88.5","72.3","59.1","29.87","345","2.5","5.8","0.00","0.00"
"15:14:59","88.3","72.7","60.1","29.87","343","1.9","6","0.00","0.00"
"15:19:59","88.3","72.8","60.4","29.87","326","1.2","4","0.00","0.00"
"15:24:58","88.6","72.7","59.5","29.87","278","2.1","4","0.00","0.00"
"15:29:58","89","72.3","58.1","29.87","265","2.7","5","0.00","0.00"
"15:34:57","88.9","72.5","58.6","29.87","271","2.3","6","0.00","0.00"
"15:39:58","89","72.5","58.5","29.87","336","2","6","0.00","0.00"
"15:44:57","89.1","72.2","57.6","29.87","338","1.6","5","0.00","0.00"
"15:49:57","89.3","72.3","57.5","29.86","252","2.1","6","0.00","0.00"
"15:54:56","89.4","73.2","59.1","29.86","227","2.5","5.8","0.00","0.00"
"15:59:56","89.6","72.6","57.4","29.86","281","1.2","4","0.00","0.00"
"16:04:59","89.9","72.6","56.9","29.86","328","1.1","5","0.00","0.00"
"16:09:56","89.9","72","55.8","29.86","325","3.1","6","0.00","0.00"
"16:14:57","89.7","72.8","57.6","29.86","322","2.7","5","0.00","0.00"
"16:19:57","89.9","72.8","57.5","29.86","228","1.4","4.6","0.00","0.00"
"16:24:56","90.1","72.6","56.6","29.86","337","2.1","5","0.00","0.00"
"16:29:56","90.1","73","57.3","29.86","253","1.8","6","0.00","0.00"
"16:34:56","90.3","73.2","57.5","29.85","257","1.8","6","0.00","0.00"
"16:39:57","90.3","73.1","57.2","29.85","247","2.6","6","0.00","0.00"
"16:43:10","90.2","72.2","55.7","29.85","354","2.7","6","0.00","0.00"
